Home   Weather   Ravensburg   Past weeks

Flag for Germany Past Weather in Ravensburg, Baden-Württemberg, Germany — Yesterday and Last 2 Weeks

Now
32 °F

Clear.


Feels Like: 26 °F
Forecast: 23 / 39 °F
Wind: 7 mph from North

Location: Friedrichshafen Airport

Current Time: Dec 4, 2016 at 5:37:22 pm

Latest Report: Dec 4, 2016 at 4:50 pm


Visibility: 10 mi

Pressure: 30.27 "Hg

Humidity: 87%

Dew Point: 28 °F

Location of RavensburgLocation

Past Weather in Ravensburg — Graph

°F

Ravensburg Temperature Yesterday

Maximum temperature yesterday: 43 °F (at 1:50 pm)
Minimum temperature yesterday: 32 °F (at 12:20 am)
Average temperature yesterday: 36 °F

High & Low Weather Summary for the Past Weeks

 TemperatureHumidityPressure
High68 °F (Nov 21, 12:20 pm)100% (Nov 20, 1:50 am)30.57 "Hg (Nov 20, 1:50 am)
Low19 °F (Nov 30, 5:20 am)30% (Nov 21, 12:20 pm)29.62 "Hg (Nov 21, 8:20 am)
Average40 °F81%30.08 "Hg
* Reported Nov 19 3:20 pm — Dec 4 3:50 pm, Ravensburg, Weather by CustomWeather, © 2016

Note: Actual official high and low records may vary slightly from our data, if they occured in-between our weather recording intervals... More about our weather records

Advertising

Ravensburg Weather History for the Previous 24 Hours

Scroll right to see more
 ConditionsComfort  
Time TempWeatherWind HumidityBarometerVisibility
3:50 pm
Sun, Dec 4
36 °FSunny.8 mph81%30.27 "Hg10 mi
3:20 pm37 °FSunny.9 mph75%30.27 "Hg10 mi
2:50 pm37 °FSunny.8 mph75%30.27 "Hg10 mi
2:20 pm37 °FSunny.6 mph75%30.27 "Hg10 mi
1:50 pm39 °FPassing clouds.5 mph70%30.27 "HgN/A
1:20 pm37 °FPassing clouds.5 mph75%30.27 "HgN/A
12:50 pm37 °FScattered clouds.5 mph70%30.27 "HgN/A
12:20 pm37 °FPartly sunny.3 mph75%30.27 "HgN/A
11:50 am37 °FPartly sunny.3 mph70%30.27 "HgN/A
11:20 am37 °FOvercast.2 mph75%30.30 "HgN/A
10:50 am36 °FOvercast.3 mph75%30.30 "HgN/A
10:20 am36 °FOvercast.5 mph81%30.30 "HgN/A
9:50 am34 °FOvercast.6 mph81%30.27 "HgN/A
9:20 am34 °FOvercast.7 mph81%30.27 "HgN/A
8:50 am32 °FOvercast.7 mph87%30.27 "HgN/A
8:20 am32 °FOvercast.6 mph87%30.27 "HgN/A
7:50 am32 °FOvercast.6 mph87%30.27 "HgN/A
7:20 am32 °FOvercast.6 mph87%30.27 "HgN/A
6:50 am32 °FOvercast.7 mph87%30.24 "HgN/A
6:20 am32 °FOvercast.6 mph87%30.24 "HgN/A
5:50 am32 °FOvercast.6 mph87%30.24 "HgN/A
5:20 am32 °FOvercast.3 mph87%30.24 "HgN/A
4:50 am32 °FOvercast.7 mph87%30.24 "HgN/A
4:20 am32 °FOvercast.7 mph87%30.24 "HgN/A
3:50 am32 °FOvercast.5 mph87%30.24 "HgN/A
3:20 am32 °FOvercast.5 mph87%30.24 "HgN/A
2:50 am32 °FOvercast.6 mph87%30.24 "HgN/A
2:20 am32 °FOvercast.5 mph87%30.24 "HgN/A
1:50 am32 °FOvercast.7 mph87%30.24 "HgN/A
1:20 am32 °FOvercast.7 mph87%30.21 "HgN/A
12:50 am32 °FOvercast.8 mph87%30.21 "HgN/A
12:20 am34 °FOvercast.7 mph81%30.21 "HgN/A
11:50 pm
Sat, Dec 3
34 °FOvercast.6 mph81%30.21 "HgN/A
11:20 pm34 °FOvercast.7 mph81%30.21 "HgN/A
10:50 pm34 °FOvercast.6 mph81%30.21 "HgN/A
10:20 pm34 °FOvercast.6 mph81%30.21 "HgN/A
9:50 pm34 °FOvercast.6 mph81%30.18 "HgN/A
9:20 pm34 °FOvercast.9 mph81%30.18 "HgN/A
8:50 pm34 °FOvercast.7 mph81%30.18 "HgN/A
8:20 pm34 °FOvercast.9 mph75%30.18 "HgN/A
7:50 pm34 °FOvercast.10 mph75%30.18 "HgN/A
7:20 pm36 °FOvercast.8 mph70%30.18 "HgN/A
6:50 pm36 °FOvercast.9 mph75%30.15 "HgN/A
6:20 pm36 °FOvercast.8 mph75%30.15 "HgN/A
5:50 pm37 °FOvercast.8 mph70%30.15 "HgN/A
5:20 pm37 °FOvercast.7 mph65%30.15 "HgN/A
Weather by CustomWeather, © 2016

See weather overviewHow to use our weather pages